Regional Weather Roundup
Issued by NWS Pendleton, OR

Home | Current Version | Previous Version | Text Only | Print | Product List | Glossary On
Versions: 1 2 3 4 5 6 7 8 9 10 11 12 13 14 15 16 17 18 19 20 21 22 23 24 25 26 27 28 29 30 31 32 33 34 35 36 37 38 39 40 41 42 43 44 45 46 47 48 49 50
649
ASUS46 KPDT 281810
RWRPDT
PENDLETON REGIONAL WEATHER ROUNDUP
NATIONAL WEATHER SERVICE PENDLETON OREGON
1100 AM PDT TUE MAR 28 2017

NOTE: FAIR INDICATES FEW OR NO CLOUDS BELOW 12,000 FEET WITH NO
SIGNIFICANT WEATHER AND/OR OBSTRUCTIONS TO VISIBILITY.

# INDICATES UNOFFICIAL STATION AND DATA

WAZ520-281910-
EAST SLOPES OF WASHINGTON CASCADES

CITY            SKY/WX      TMP DP  RH  WIND    PRES   REMARKS
#CLE ELUM HS    N/A         39  37  92  CALM    30.15S
#CLE ELUM LAKE  N/A         36  34  92  CALM    30.22R
#GLENWOOD       N/A         44  40  86  SW8     30.27F
#MANASTASH CYN  N/A         43  38  82  CALM    30.13F
#NELSON 3SW     N/A         35  33  92  CALM    30.45S
#NILE           N/A         46  37  71  CALM    29.47F
#TEANAWAY 4NE   N/A         42  38  86  CALM    N/A
#TROUT LAKE 1NE N/A         43  38  82  W1      30.30S
#TROUT LAKE 1E  N/A         44  39  82  SW1     30.28F
$$

WAZ521-281910-
SIMCOE HIGHLANDS

CITY            SKY/WX      TMP DP  RH  WIND    PRES   REMARKS
#BICKLETON HS   N/A         44  36  73  SW26    30.22F WCI 35
#CENTERVILLE 1SWN/A         43  36  76  W5      30.27S
#GOLDENDALE 1NE N/A         44  30  58  S3      N/A
#GOLDENDALE 4W  N/A         45  22  40  W7      30.29R
#GOODNOE HILLS  N/A         48  37  65  W8      30.18S
#LYLE 6NE       N/A         43  39  86  CALM    30.27S
#PITT 4SE       N/A         40  36  85  W2      30.33F
$$

WAZ026-281910-
KITTITAS VALLEY

CITY            SKY/WX      TMP DP  RH  WIND    PRES   REMARKS
ELLENSBURG AP   MOCLDY      48  34  58  SW3     30.20S
6HR MIN TEMP:   41; 6HR MAX TEMP:   49;

#ELLENSBURG CWU N/A         50  37  61  CALM    30.16S
#ELLENSBURG 3NE N/A         44  38  79  CALM    28.26F
#ELLENSBURG 1E  N/A         45  N/A N/A CALM    N/A
#ELLENSBURG 13S N/A         50  32  50  CALM    N/A
#KITTITAS 4N    N/A         48  39  71  CALM    30.20F
#KITTITAS 3S    N/A         45  38  76  CALM    30.21F
#THORP 6N       N/A         42  37  82  NW7     30.24F
$$

WAZ027-281910-
YAKIMA VALLEY

CITY            SKY/WX      TMP DP  RH  WIND    PRES   REMARKS
SUNNYSIDE AP    PTCLDY      51  33  50  CALM    30.25F
6HR MIN TEMP:   37; 6HR MAX TEMP:   52;

YAKIMA AIRPORT  MOCLDY      53  38  57  W6      30.22F
6HR MIN TEMP:   41; 6HR MAX TEMP:   54;

YAKIMA-VAGABOND MOCLDY      49  37  63  S12     30.20S WCI 44
6HR MIN TEMP:   39; 6HR MAX TEMP:   50;

#DONALD 2NE     N/A         59   3  10  S14     28.91S
#GRANDVIEW      N/A         55  36  49  SE2     30.26F
#MABTON         N/A         53  40  61  S7      30.24F
#MOXEE 2E       N/A         50   0  12  S12     30.12F
#NACHES 2SW     N/A         47  38  71  S2      30.22S
#TERRACE HTS    N/A         49  38  66  CALM    30.21S
#TOPPENISH      N/A         52  38  59  CALM    30.17S
#WEST VALLEY    N/A         49  36  61  CALM    30.21F
#W YAKIMA       N/A         49  36  61  S1      30.22F
#WHITE SWAN 5E  N/A         56  40  55  W9      30.22F
#WILEY CITY 3W  N/A         50  35  56  SW3     30.17F
$$

WAZ028-281910-
LOWER COLUMBIA BASIN...WASHINGTON

CITY            SKY/WX      TMP DP  RH  WIND    PRES   REMARKS
HANFORD         CLOUDY      53  34  48  SW8     30.23R
6HR MIN TEMP:   40; 6HR MAX TEMP:   53;

PASCO           CLOUDY      53  35  50  SW12    30.28F
6HR MIN TEMP:   45; 6HR MAX TEMP:   53;

PROSSER AWOS    N/A         54  39  57  S16G24  30.28F
RICHLAND AWOS   CLOUDY      55  39  55  S16     30.26F
#BENTON CITY    N/A         52  40  63  SW7     30.17F
#CONNELL 5N     N/A         50  41  71  SW7     30.25F
#CONNELL 5NW    N/A         49  42  77  S12     30.21S WCI 44
#ELTOPIA 6NW    N/A         50  40  68  S8      29.21F
#KAHLOTUS       N/A         48  39  71  W24G35  30.26F WCI 40
#KENNEWICK 3S   N/A         49  39  68  SE8     30.27F
#PATERSON       N/A         49  39  68  W8      30.28F
#SAGEMOOR 2W    N/A         50  40  68  SW13    30.13F
#TOUCHET 2S     N/A         53  39  59  SW9     30.29S
#WEST PASCO     N/A         53  39  59  SW7     30.31F
$$

WAZ029-281910-
FOOTHILLS OF THE BLUES...WASHINGTON

CITY            SKY/WX      TMP DP  RH  WIND    PRES   REMARKS
WALLA WALLA AP  MOCLDY      51  36  56  SW15    30.30S
6HR MIN TEMP:   45; 6HR MAX TEMP:   51; 6HR PCP:  TRACE;

#CLYDE 6NW      N/A         48  38  68  W17G26  30.27F WCI 42
#DAYTON SCHOOL  N/A         48  30  49  SW9     30.29S
#LOWDEN 2SE     N/A         53  39  59  W7      30.27S
#PLEASANT VIEW 1N/A         47  39  74  SE17G24 30.31S WCI 40
#PRESCOTT       N/A         52  40  63  S6      30.28F
#WHITMAN COLLEGEN/A         51  36  56  SW7     30.36R
#WAITSBURG 5S   N/A         47  38  71  SW7     30.40S
#WAITSBURG 8N   N/A         48  N/A N/A S20     30.23S WCI 41
#WALLA WALLA 5E N/A         52  37  56  SW14    N/A
#WHITMAN MISSIONN/A         53  39  59  SW2     30.32S
$$

WAZ030-281910-
BLUE MOUNTAINS...WASHINGTON

CITY            SKY/WX      TMP DP  RH  WIND    PRES   REMARKS
#DIXIE 5SE      N/A         42  33  70  SW16G24 30.19R WCI 34
$$

ORZ009-041-WAZ024-281910-
COLUMBIA RIVER GORGE

CITY            SKY/WX      TMP DP  RH  WIND    PRES   REMARKS
HOOD RIVER AP   CLOUDY      48  41  77  NW3     30.31S
THE DALLES AP   CLOUDY      49  42  77  CALM    30.31F
6HR MIN TEMP:   42; 6HR MAX TEMP:   50;

#ARLINGTON AIRPON/A         47  39  74  W5      30.30F
#CELILO DOT     N/A         49  38  66  SW2     N/A
#LYLE           N/A         49  43  80  W1      30.33S
#MOSIER 1S      N/A         48  33  56  CALM    30.29S
#MURDOCK        N/A         48  42  80  SW1     30.28S
#RUFUS DOT      N/A         48  40  74  NW2     N/A
#SMITHVILLE     N/A         48  42  80  N2      30.27S

$$

ORZ510-281910-
NORTH CENTRAL OREGON

CITY            SKY/WX      TMP DP  RH  WIND    PRES   REMARKS
#ANTELOPE       N/A         44  35  70  SW9     30.22S
#CHENOWITH 1W   N/A         42  38  86  NW2     N/A
#COW CYN RST AREN/A         43  32  65  SW9     N/A
#DUFUR          N/A         46  38  73  CALM    30.27S
#DUFUR 9E       N/A         44  37  76  SW17    30.35F WCI 36
#GRASS VALLEY 1SN/A         45  36  70  SW12    30.39S WCI 39
#KENT DOT       N/A         45  27  49  N18     N/A    WCI 37
#MAUPIN SCHOOL  N/A         51  38  61  S3      30.33F
#MORO SCHOOL    N/A         47  40  76  SW2     30.33S
#SHANIKO 5WSW   N/A         40  27  59  N15     N/A    WCI 32
#SHANIKO 4NW    N/A         40  32  73  SW3     30.26R
#TYGH VALLEY 2NEN/A         50  39  66  N7      30.29F
#WAPANITIA AIRPON/A         48  38  68  SW12    30.32F WCI 43
#WASCO DOT      N/A         49  35  58  W6      N/A
#WASCO 5NE      N/A         46  38  73  SW1     30.29F
$$

ORZ511-281910-
CENTRAL OREGON

CITY            SKY/WX      TMP DP  RH  WIND    PRES   REMARKS
BEND AIRPORT    MOCLDY      45  30  55  CALM    30.30S
MADRAS AIRPORT  CLOUDY      48  34  58  S13     30.32S WCI 43
PRINEVILLE AP   CLOUDY      43  32  65  CALM    30.31R
REDMOND AIRPORT MOCLDY      46  28  49  CALM    30.31R
6HR MIN TEMP:   35; 6HR MAX TEMP:   46;

#ASHWOOD SCHOOL N/A         47  33  58  S3      30.24S
#BEND 1SW       N/A         45  36  70  CALM    N/A
#BEND-AWBREY    N/A         45  36  70  S2      30.34S
#BEND-KIM LN    N/A         47  35  63  W2      30.28S
#CULVER         N/A         45  34  65  S7      30.26S
#CULVER 8W      N/A         50  33  52  SW2     30.26S
#POWELL BUTTE   N/A         44  29  55  W2      30.22S
#PRINEVILLE     N/A         44  34  68  CALM    30.45S
#PRINEVILLE 3N  N/A         44  34  68  E2      30.35R

$$


ORZ509-281910-
EAST SLOPES OF OREGON CASCADES

CITY            SKY/WX      TMP DP  RH  WIND    PRES   REMARKS
SISTERS AWOS    N/A         46  36  68  CALM    30.24S
#BLUE BOX PASS  N/A         34  N/A N/A SW9     N/A
#CAMP SHERMAN   N/A         49  36  61  S1      30.39F
#LA PINE DOT    N/A         42  28  57  W3      N/A
#LA PINE 4SW    N/A         43  31  62  S1      30.29S
#LA PINE 4NW    N/A         40  32  73  CALM    30.42S
#LAVA BUTTE DOT N/A         41  29  62  SW2     N/A
#SISTERS 3N     N/A         50  34  54  W8      30.38S
#SUNRIVER       N/A         43  35  73  SW3     30.38R
#TUMALO 3W      N/A         44  33  65  E1      30.22S
#WANOGA BUTTE D N/A         34  28  78  SE2     N/A

$$

ORZ044-281910-
LOWER COLUMBIA BASIN...OREGON

CITY            SKY/WX      TMP DP  RH  WIND    PRES   REMARKS
HERMISTON       CLOUDY      56  37  49  W14     30.28F
6HR MIN TEMP:   43; 6HR MAX TEMP:   56;

#BOARDMAN SCHOOLN/A         52  40  63  SW5     30.29S
#BOARDMAN 8SW   N/A         52  41  66  SW10    30.29F
#ECHO 8SW       N/A         55  37  51  W12     30.29F
#I-84 EX 198 DOTN/A         50  38  63  N7      N/A
#IONE SCHOOL    N/A         52  33  48  SW8     30.31F
#UMATILLA       N/A         53  38  57  SW7     30.23F
$$

ORZ507-281910-
NORTHERN FOOTHILLS OF THE BLUES

CITY            SKY/WX      TMP DP  RH  WIND    PRES   REMARKS
PENDLETON AIRPT CLOUDY      52  34  50  SW6     30.28F
6HR MIN TEMP:   41; 6HR MAX TEMP:   52;

#ADAMS 3WNW     N/A         49  39  68  S3      30.31S
#ATHENA         N/A         48  35  60  SW3     30.34R
#CAYUSE         N/A         50  35  56  S7      30.31R
#HELIX SCHOOL   N/A         49  37  63  N8      30.31S
#HELIX 3N       N/A         48  36  63  S9      30.24S
#HOLDMAN 5SE    N/A         50  38  63  SW5     30.26F
#HOLDMAN 6E     N/A         48  38  68  S8      30.11S
#M-F FERNDALE   N/A         53  35  50  CALM    30.27S
#M-F GROVE ELEM N/A         51  31  46  S1      30.28R
#M-FREEWATER 5SEN/A         50  36  58  SW2     30.29R
#PENDLETON DNTN N/A         55  34  45  S2      30.28S
#PDT AQUATIC CTRN/A         52  36  54  W5      30.29S
#PDT SUNRIDGE   N/A         54  36  50  S1      30.30S
#PENDLETON 7NW  N/A         53  40  61  W2      25.80S
#PILOT ROCK 1S  N/A         54  31  41  S7      30.27S
#PILOT ROCK     N/A         55  40  57  SW6     30.28S
#TUTUILLA       N/A         52  37  56  S3      30.31S
#WESTON SCHOOL  N/A         48  32  54  NW2     30.29S

$$

ORZ508-281910-
SOUTHERN FOOTHILLS OF THE BLUES

CITY            SKY/WX      TMP DP  RH  WIND    PRES   REMARKS
LEXINGTON       MOCLDY      52  34  50  SW15    30.31S
#AJAX           N/A         46  28  49  S7      30.40S
#CONDON SCHOOL  N/A         45  35  68  S15     30.19F WCI 38
#CONDON 5W      N/A         43  32  65  S14     30.23S WCI 36
#HEPPNER EOC    N/A         49  33  54  SW7     30.24F
#HEPPNER 4NE    N/A         46  33  60  S7      30.31S
#LEXINGTON 2SE  N/A         53  35  50  CALM    30.26F
#MIKKALO        N/A         49  35  58  W8      30.36F
#OLEX 4N        N/A         48  39  71  SW7     30.26F
#RUGGS 5NE      N/A         47  30  51  SW7     30.43S
#RUGGS 2SW      N/A         47  33  58  W12     30.33S WCI 42

$$

ORZ502-503-281910-
BLUE MOUNTAINS

CITY            SKY/WX      TMP DP  RH  WIND    PRES   REMARKS
MEACHAM         CLOUDY      40  29  64  CALM    30.27R
6HR MIN TEMP:   33; 6HR MAX TEMP:   40;

#BATTLE MTN DOT N/A         36  30  79  S8      N/A
#GREENHORN 9SW  N/A         41  36  82  CALM    26.46S
#HARDMAN 10S    N/A         37  30  75  SW3     30.47R
#HEPPNER 15SE   N/A         41  32  70  CALM    30.25R
#LADD CYN SMT   N/A         40  30  67  S3      N/A
#LADD CREEK ODOTN/A         40  28  62  NE2     N/A
#LONG CREEK HS  N/A         42  35  76  CALM    N/A
#N POWDER DOT   N/A         42  33  70  W1      N/A
#PIKES PEAK     N/A         39  30  70  W14     27.99S WCI 31
#TOLLGATE       N/A         31  30  96  S2      30.07R
#TROY SCHOOL    N/A         49  41  74  CALM    30.17S
#UKIAH          N/A         43  35  73  S2      30.27R
#WESTON 4E      N/A         42  34  73  S6      30.31R
$$

ORZ505-281910-
JOHN DAY BASIN

CITY            SKY/WX      TMP DP  RH  WIND    PRES   REMARKS
JOHN DAY        CLOUDY      44  33  65  CALM    30.30S
#JOHN DAY KJDY  N/A         45  N/A N/A N1      29.46F
#ANTELOPE 9ESE  N/A         51  35  54  NE5     N/A
#DAYVILLE SCHOOLN/A         45  32  60  E1      30.27R
#MITCHELL       N/A         46  35  65  CALM    30.43S
#MITCHELL 8NW   N/A         45  32  60  CALM    30.26S
#MONUMENT HS    N/A         47  32  56  CALM    30.25F
#MT. VERNON 5SE N/A         41  33  73  N5      30.25R
#SPRAY SCHOOL   N/A         47  N/A N/A CALM    N/A
#WINLOCK        N/A         45  33  63  CALM    30.24S
$$

ORZ506-281910-
OCHOCO AND JOHN DAY HIGHLANDS

CITY            SKY/WX      TMP DP  RH  WIND    PRES   REMARKS
#HORSE RIDGE DO N/A         43  28  55  W6      N/A
#PAULINA SCHOOL N/A         40  30  67  SW3     N/A
#PINE MTN OBS   N/A         32  28  85  N2      N/A
#PRAIRIE CITY   N/A         40  34  79  CALM    30.47R
#SENECA 9NW     N/A         35  30  82  S1      30.38R
$$

ORZ049-281910-
GRANDE RONDE VALLEY

CITY            SKY/WX      TMP DP  RH  WIND    PRES   REMARKS
LA GRANDE       CLOUDY      45  36  70  CALM    30.30R
#COVE           N/A         42  38  86  NE5     30.31S
#COVE SCHOOL    N/A         43  37  79  CALM    30.29S
#COVE 6NW       N/A         42  35  76  CALM    30.36R
#ELGIN 3N       N/A         44  32  62  S1      30.25R
#ELGIN 1E       N/A         46  35  65  CALM    N/A
#IMBLER SCHOOL  N/A         42  34  73  E2      30.24R
#ISLAND CITY 4N N/A         48  45  89  S1      30.32S
#LADD CYN DOT   N/A         43  34  70  NW1     N/A
#UNION 1S       N/A         45  34  65  N1      30.35S
$$

ORZ050-281910-
WALLOWA COUNTY

CITY            SKY/WX      TMP DP  RH  WIND    PRES   REMARKS
JOSEPH AIRPORT  CLOUDY      43  28  55  CALM    30.27R
#IMNAHA SCHOOL  N/A         51  35  54  SE1     30.26F
#IMNAHA 10S     N/A         52  33  48  S7      29.84S
#JOSEPH 3N      N/A         43  28  55  CALM    30.26S
#JOSEPH 3W      N/A         38  31  76  E2      30.07R
#LOSTINE        N/A         42  35  76  N1      30.14S
#LOSTINE 3SE    N/A         44  33  65  N5      30.32S
#MT HOWARD 8000 N/A         27  23  85  W1      30.16R
#PROMISE 1S     N/A         38  32  79  NE2     30.42S
#WALLOWA SCHOOL N/A         43  35  73  CALM    30.24S



$$



USA.gov is the U.S. government's official web portal to all federal, state and local government web resources and services.